When you browse on this site, cookies collect data to enhance your experience and personalize the content and advertising you see.
Visit our Privacy Policy to learn more. By continuing to use the site, you agree to this use of cookies and data.
  • In Sweden
  • List of Countries
  • For 7 days
  • Water Temperature
  • Satellite Maps
  • Weather Map
  • Weather Widgets
  • user-avatar
    Login

    Hourly Weather Belfast

    Today, 19 November, Monday

    Time Temperature Precipitation Wind Pressure Humidity
    00:00 +6°C° 0 mm 7 mps 770 mmHg 78%
    01:00 +6°C° 0 mm 7 mps 769 mmHg 79%
    02:00 +5°C° 0 mm 6 mps 769 mmHg 80%
    03:00 +5°C° 0 mm 6 mps 769 mmHg 81%
    04:00 +5°C° 0 mm 6 mps 769 mmHg 83%
    05:00 +5°C° 0 mm 6 mps 769 mmHg 85%
    06:00 +5°C° 0 mm 6 mps 768 mmHg 88%
    07:00 +5°C° 0 mm 6 mps 768 mmHg 87%
    08:00 +7°C° 0 mm 6 mps 768 mmHg 87%
    09:00 +7°C° 0 mm 6 mps 768 mmHg 86%
    10:00 +6°C° 0 mm 7 mps 768 mmHg 84%
    11:00 +6°C° 0 mm 7 mps 768 mmHg 82%
    12:00 +8°C° 0 mm 7 mps 768 mmHg 80%
    13:00 +8°C° 0 mm 7 mps 768 mmHg 79%
    14:00 +6°C° 0 mm 7 mps 767 mmHg 78%
    15:00 +6°C° 0 mm 7 mps 767 mmHg 77%
    16:00 +6°C° 0 mm 7 mps 767 mmHg 77%
    17:00 +6°C° 0 mm 7 mps 767 mmHg 76%
    18:00 +6°C° 0 mm 7 mps 767 mmHg 76%
    19:00 +6°C° 0 mm 7 mps 767 mmHg 76%
    20:00 +5°C° 0 mm 7 mps 767 mmHg 76%
    21:00 +5°C° 0 mm 8 mps 767 mmHg 76%
    22:00 +5°C° 0 mm 8 mps 767 mmHg 76%
    23:00 +5°C° 0 mm 8 mps 766 mmHg 76%

    Tomorrow, 20 November, Tuesday

    Time Temperature Precipitation Wind Pressure Humidity
    00:00 +5°C° 0 mm 8 mps 766 mmHg 75%
    01:00 +5°C° 0.1 mm 8 mps 766 mmHg 76%
    02:00 +5°C° 0.1 mm 8 mps 766 mmHg 76%
    03:00 +5°C° 0.1 mm 8 mps 765 mmHg 76%
    04:00 +5°C° 0.1 mm 8 mps 765 mmHg 77%
    05:00 +4°C° 0.1 mm 8 mps 765 mmHg 78%
    06:00 +4°C° 0.1 mm 8 mps 764 mmHg 79%
    07:00 +4°C° 0.1 mm 8 mps 764 mmHg 79%
    08:00 +3°C° 0.1 mm 9 mps 764 mmHg 78%
    09:00 +3°C° 0.1 mm 9 mps 764 mmHg 78%
    10:00 +5°C° 0.1 mm 9 mps 763 mmHg 75%
    11:00 +5°C° 0.1 mm 9 mps 763 mmHg 73%
    12:00 +6°C° 0.1 mm 9 mps 763 mmHg 71%
    13:00 +6°C° 0.1 mm 9 mps 762 mmHg 71%
    14:00 +6°C° 0.1 mm 9 mps 762 mmHg 71%
    15:00 +5°C° 0.1 mm 9 mps 761 mmHg 71%
    16:00 +5°C° 0.1 mm 9 mps 761 mmHg 72%
    17:00 +5°C° 0.1 mm 9 mps 761 mmHg 73%
    18:00 +3°C° 0.1 mm 9 mps 760 mmHg 74%
    19:00 +3°C° 0.1 mm 9 mps 760 mmHg 74%
    20:00 +3°C° 0.1 mm 9 mps 760 mmHg 75%
    21:00 +3°C° 0.1 mm 9 mps 760 mmHg 75%
    22:00 +3°C° 0.3 mm 9 mps 759 mmHg 76%
    23:00 +5°C° 0.3 mm 9 mps 759 mmHg 77%

    Day after tomorrow, 21 November, Wednesday

    Time Temperature Precipitation Wind Pressure Humidity
    00:00 +5°C° 0.3 mm 9 mps 758 mmHg 77%
    01:00 +5°C° 0.5 mm 9 mps 758 mmHg 79%
    02:00 +5°C° 0.5 mm 9 mps 757 mmHg 80%
    03:00 +5°C° 0.5 mm 9 mps 757 mmHg 82%
    04:00 +5°C° 0.6 mm 9 mps 756 mmHg 83%
    05:00 +5°C° 0.6 mm 9 mps 756 mmHg 83%
    06:00 +5°C° 0.6 mm 9 mps 755 mmHg 84%
    07:00 +5°C° 0.7 mm 9 mps 755 mmHg 84%
    08:00 +5°C° 0.7 mm 9 mps 755 mmHg 83%
    09:00 +5°C° 0.7 mm 8 mps 755 mmHg 83%
    10:00 +5°C° 0.5 mm 8 mps 755 mmHg 82%
    11:00 +5°C° 0.5 mm 8 mps 755 mmHg 81%
    12:00 +5°C° 0.5 mm 8 mps 755 mmHg 79%
    13:00 +5°C° 0.5 mm 8 mps 755 mmHg 80%
    14:00 +5°C° 0.5 mm 7 mps 755 mmHg 80%
    15:00 +5°C° 0.5 mm 6 mps 756 mmHg 81%
    16:00 +4°C° 0.3 mm 6 mps 756 mmHg 82%
    17:00 +4°C° 0.3 mm 6 mps 757 mmHg 83%
    18:00 +3°C° 0.3 mm 6 mps 758 mmHg 84%
    19:00 +3°C° 0.1 mm 6 mps 758 mmHg 84%
    20:00 +3°C° 0.1 mm 6 mps 759 mmHg 85%
    21:00 +3°C° 0.1 mm 6 mps 760 mmHg 86%
    22:00 +4°C° 0.2 mm 7 mps 760 mmHg 86%
    23:00 +4°C° 0.2 mm 7 mps 761 mmHg 85%

    22 November, Thursday

    Time Temperature Precipitation Wind Pressure Humidity
    00:00 +4°C° 0.2 mm 7 mps 761 mmHg 85%
    01:00 +4°C° 0.1 mm 7 mps 762 mmHg 85%
    02:00 +4°C° 0.1 mm 7 mps 762 mmHg 86%
    03:00 +5°C° 0.1 mm 7 mps 762 mmHg 86%
    04:00 +5°C° 0 mm 7 mps 762 mmHg 85%
    05:00 +5°C° 0 mm 7 mps 763 mmHg 85%
    06:00 +5°C° 0 mm 6 mps 763 mmHg 85%
    07:00 +4°C° 0 mm 6 mps 763 mmHg 85%
    08:00 +4°C° 0 mm 6 mps 764 mmHg 86%
    09:00 +5°C° 0 mm 5 mps 764 mmHg 86%
    10:00 +5°C° 0 mm 5 mps 764 mmHg 83%
    11:00 +6°C° 0 mm 5 mps 764 mmHg 80%
    12:00 +6°C° 0 mm 5 mps 764 mmHg 77%
    13:00 +6°C° 0 mm 5 mps 764 mmHg 78%
    14:00 +6°C° 0 mm 4 mps 763 mmHg 78%
    15:00 +6°C° 0 mm 4 mps 763 mmHg 79%
    16:00 +6°C° 0 mm 4 mps 763 mmHg 81%
    17:00 +6°C° 0 mm 4 mps 763 mmHg 83%
    18:00 +5°C° 0 mm 4 mps 763 mmHg 86%
    19:00 +5°C° 0 mm 4 mps 763 mmHg 87%
    20:00 +5°C° 0 mm 4 mps 763 mmHg 88%
    21:00 +5°C° 0 mm 4 mps 763 mmHg 89%
    22:00 +5°C° 0 mm 4 mps 763 mmHg 89%
    23:00 +6°C° 0 mm 4 mps 763 mmHg 89%

    23 November, Friday

    Time Temperature Precipitation Wind Pressure Humidity
    00:00 +6°C° 0 mm 4 mps 763 mmHg 89%
    01:00 +6°C° 0.1 mm 4 mps 763 mmHg 89%
    02:00 +6°C° 0.1 mm 4 mps 763 mmHg 90%
    03:00 +6°C° 0.1 mm 4 mps 762 mmHg 91%
    04:00 +6°C° 0.1 mm 4 mps 762 mmHg 91%
    05:00 +6°C° 0.1 mm 4 mps 762 mmHg 91%
    06:00 +6°C° 0.1 mm 4 mps 762 mmHg 91%
    07:00 +6°C° 0 mm 4 mps 762 mmHg 90%
    08:00 +6°C° 0 mm 4 mps 762 mmHg 90%
    09:00 +6°C° 0 mm 4 mps 762 mmHg 90%
    10:00 +6°C° 0 mm 4 mps 762 mmHg 87%
    11:00 +7°C° 0 mm 5 mps 762 mmHg 84%
    12:00 +7°C° 0 mm 5 mps 762 mmHg 81%
    13:00 +7°C° 0 mm 5 mps 761 mmHg 82%
    14:00 +7°C° 0 mm 4 mps 761 mmHg 83%
    15:00 +7°C° 0 mm 4 mps 761 mmHg 84%
    16:00 +6°C° 0 mm 4 mps 761 mmHg 86%
    17:00 +6°C° 0 mm 4 mps 761 mmHg 87%
    18:00 +6°C° 0 mm 4 mps 761 mmHg 89%
    19:00 +6°C° 0 mm 4 mps 761 mmHg 89%
    20:00 +6°C° 0 mm 5 mps 761 mmHg 89%
    21:00 +6°C° 0 mm 5 mps 761 mmHg 89%
    22:00 +6°C° 0 mm 5 mps 761 mmHg 89%
    23:00 +6°C° 0 mm 4 mps 761 mmHg 89%

    24 November, Saturday

    Time Temperature Precipitation Wind Pressure Humidity
    00:00 +6°C° 0 mm 4 mps 761 mmHg 89%
    01:00 +6°C° 0 mm 4 mps 760 mmHg 89%
    02:00 +6°C° 0 mm 5 mps 760 mmHg 89%
    03:00 +7°C° 0 mm 5 mps 760 mmHg 89%
    04:00 +6°C° 0 mm 5 mps 760 mmHg 89%
    05:00 +6°C° 0 mm 5 mps 760 mmHg 89%
    06:00 +6°C° 0 mm 5 mps 760 mmHg 89%
    07:00 +6°C° 0 mm 5 mps 760 mmHg 89%
    08:00 +6°C° 0 mm 5 mps 760 mmHg 89%
    09:00 +6°C° 0 mm 4 mps 760 mmHg 89%
    10:00 +6°C° 0 mm 4 mps 760 mmHg 88%
    11:00 +6°C° 0 mm 4 mps 760 mmHg 87%
    12:00 +7°C° 0 mm 4 mps 760 mmHg 86%
    13:00 +6°C° 0 mm 4 mps 760 mmHg 86%
    14:00 +6°C° 0 mm 4 mps 760 mmHg 87%
    15:00 +6°C° 0 mm 4 mps 760 mmHg 87%
    16:00 +6°C° 0 mm 4 mps 760 mmHg 88%
    17:00 +6°C° 0 mm 4 mps 760 mmHg 89%
    18:00 +7°C° 0 mm 3 mps 760 mmHg 90%
    19:00 +7°C° 0 mm 3 mps 760 mmHg 90%
    20:00 +7°C° 0 mm 3 mps 761 mmHg 90%
    21:00 +7°C° 0 mm 3 mps 761 mmHg 90%
    22:00 +7°C° 0 mm 3 mps 761 mmHg 90%
    23:00 +7°C° 0 mm 3 mps 761 mmHg 90%
    Show more